Location: Theodore Roosevelt National Park
(46.9990°N, 103.4631°W)
Time: 05:02:37
(UTC-06:00)

Iridium 37 - Visible Passes

Search period start: 07 July 2015 00:00
Search period end: 17 July 2015 00:00
Orbit: 776 x 779 km, 86.4° (Epoch: 06 July)

Date Brightness Start Highest point End Pass type
(mag) Time Alt. Az. Time Alt. Az. Time Alt. Az.
07 Jul 7.2 21:39:32 10° ESE 21:42:43 17° ENE 21:46:05 10° NE visible
07 Jul 5.7 23:19:20 20° SSW 23:22:56 68° W 23:28:09 10° N visible
08 Jul 5.5 22:45:42 19° S 22:49:23 70° E 22:54:36 10° N visible
09 Jul 7.8 00:27:20 10° WSW 00:30:47 17° WNW 00:34:03 10° NNW visible
09 Jul 6.1 22:12:02 15° SSE 22:15:57 40° E 22:20:49 10° NNE visible
09 Jul 7.2 23:52:30 11° SW 23:56:51 28° WNW 00:01:18 10° NNW visible
10 Jul 6.8 21:38:38 10° SE 21:42:38 23° E 21:46:45 10° NNE visible
10 Jul 6.3 23:18:49 14° SSW 23:23:05 48° W 23:28:09 10° N visible
11 Jul 5.5 22:45:08 15° S 22:49:27 84° W 22:54:43 10° N visible
12 Jul 8.1 00:29:00 10° W 00:31:11 12° WNW 00:33:06 10° NW visible
12 Jul 5.7 22:11:27 13° SSE 22:15:58 56° E 22:21:05 10° NNE visible
12 Jul 7.7 23:53:12 10° WSW 23:57:09 21° WNW 00:01:00 10° NNW visible
13 Jul 6.4 21:38:03 10° SE 21:42:34 32° E 21:47:12 10° NNE visible
13 Jul 6.9 23:18:31 10° SW 23:23:17 35° WNW 23:28:02 10° NNW visible
14 Jul 6.0 22:44:25 10° SSW 22:49:34 61° W 22:54:46 10° N visible
15 Jul 5.5 22:10:49 10° S 22:16:01 78° E 22:21:15 10° N visible
15 Jul 8.0 23:54:25 10° WSW 23:57:31 15° WNW 00:00:25 10° NW visible
16 Jul 6.0 21:37:39 10° SSE 21:42:33 44° E 21:47:31 10° NNE visible
16 Jul 7.4 23:19:12 10° SW 23:23:33 25° WNW 23:27:49 10° NNW visible
